When you browse on this site, cookies collect data to enhance your experience and personalize the content and advertising you see.
Visit our Privacy Policy to learn more. By continuing to use the site, you agree to this use of cookies and data.
  • în România
  • Lista ţărilor
  • Pe 7 zile
  • Temperatura apei
  • Meteo pe hartă
  • Widget-uri
  • user-avatar
    Intrare

    Meteo pe oră la Barcelona

    Astăzi, 28 Februarie, Vineri

    Timp Temperatura Precipitaţii Vânt Presiune Umiditate
    00:00 +26°C° 0 mm 4 m/s 760 mmHg 85%
    01:00 +26°C° 0 mm 4 m/s 760 mmHg 86%
    02:00 +25°C° 0 mm 4 m/s 760 mmHg 87%
    03:00 +25°C° 0 mm 3 m/s 760 mmHg 88%
    04:00 +25°C° 0 mm 3 m/s 760 mmHg 89%
    05:00 +24°C° 0 mm 2 m/s 760 mmHg 90%
    06:00 +25°C° 0 mm 2 m/s 760 mmHg 85%
    07:00 +26°C° 0 mm 1 m/s 761 mmHg 80%
    08:00 +27°C° 0 mm 1 m/s 761 mmHg 75%
    09:00 +30°C° 0 mm 1 m/s 761 mmHg 63%
    10:00 +34°C° 0 mm 2 m/s 761 mmHg 52%
    11:00 +37°C° 0 mm 2 m/s 761 mmHg 41%
    12:00 +36°C° 0 mm 3 m/s 760 mmHg 42%
    13:00 +36°C° 0 mm 3 m/s 759 mmHg 43%
    14:00 +35°C° 0 mm 4 m/s 758 mmHg 44%
    15:00 +34°C° 0 mm 5 m/s 758 mmHg 48%
    16:00 +33°C° 0 mm 5 m/s 758 mmHg 52%
    17:00 +32°C° 0 mm 6 m/s 757 mmHg 55%
    18:00 +30°C° 0 mm 6 m/s 758 mmHg 61%
    19:00 +29°C° 0 mm 6 m/s 758 mmHg 66%
    20:00 +27°C° 0 mm 6 m/s 759 mmHg 71%
    21:00 +27°C° 0 mm 5 m/s 759 mmHg 75%
    22:00 +26°C° 0 mm 4 m/s 760 mmHg 79%
    23:00 +26°C° 0 mm 4 m/s 760 mmHg 83%

    Mâine, 29 Februarie, Sâmbătă

    Timp Temperatura Precipitaţii Vânt Presiune Umiditate
    00:00 +25°C° 0 mm 3 m/s 760 mmHg 85%
    01:00 +25°C° 0 mm 3 m/s 759 mmHg 87%
    02:00 +24°C° 0 mm 2 m/s 759 mmHg 89%
    03:00 +24°C° 0 mm 2 m/s 759 mmHg 89%
    04:00 +24°C° 0 mm 1 m/s 759 mmHg 88%
    05:00 +24°C° 0 mm 1 m/s 760 mmHg 88%
    06:00 +25°C° 0 mm 1 m/s 760 mmHg 81%
    07:00 +26°C° 0 mm 1 m/s 761 mmHg 75%
    08:00 +27°C° 0 mm 1 m/s 761 mmHg 68%
    09:00 +30°C° 0 mm 1 m/s 761 mmHg 59%
    10:00 +32°C° 0 mm 1 m/s 761 mmHg 50%
    11:00 +35°C° 0 mm 1 m/s 762 mmHg 42%
    12:00 +35°C° 0 mm 2 m/s 761 mmHg 43%
    13:00 +35°C° 0 mm 3 m/s 760 mmHg 44%
    14:00 +35°C° 0 mm 3 m/s 759 mmHg 46%
    15:00 +34°C° 0 mm 4 m/s 758 mmHg 49%
    16:00 +33°C° 0 mm 5 m/s 758 mmHg 53%
    17:00 +32°C° 0 mm 6 m/s 757 mmHg 56%
    18:00 +30°C° 0 mm 6 m/s 758 mmHg 62%
    19:00 +29°C° 0 mm 6 m/s 758 mmHg 68%
    20:00 +27°C° 0 mm 6 m/s 759 mmHg 73%
    21:00 +27°C° 0 mm 5 m/s 759 mmHg 76%
    22:00 +27°C° 0 mm 5 m/s 759 mmHg 79%
    23:00 +26°C° 0 mm 4 m/s 760 mmHg 81%

    Poimâine, 1 Martie, Duminică

    Timp Temperatura Precipitaţii Vânt Presiune Umiditate
    00:00 +26°C° 0 mm 4 m/s 759 mmHg 83%
    01:00 +25°C° 0 mm 3 m/s 759 mmHg 86%
    02:00 +25°C° 0 mm 3 m/s 759 mmHg 88%
    03:00 +24°C° 0 mm 2 m/s 759 mmHg 89%
    04:00 +24°C° 0 mm 2 m/s 759 mmHg 89%
    05:00 +24°C° 0 mm 1 m/s 759 mmHg 90%
    06:00 +25°C° 0 mm 1 m/s 760 mmHg 85%
    07:00 +26°C° 0 mm 1 m/s 760 mmHg 80%
    08:00 +27°C° 0 mm 1 m/s 761 mmHg 75%
    09:00 +29°C° 0 mm 1 m/s 761 mmHg 67%
    10:00 +31°C° 0 mm 1 m/s 761 mmHg 60%
    11:00 +34°C° 0 mm 2 m/s 761 mmHg 52%
    12:00 +34°C° 0 mm 2 m/s 760 mmHg 49%
    13:00 +35°C° 0 mm 2 m/s 759 mmHg 47%
    14:00 +35°C° 0 mm 3 m/s 758 mmHg 45%
    15:00 +34°C° 0 mm 4 m/s 758 mmHg 48%
    16:00 +33°C° 0 mm 4 m/s 757 mmHg 52%
    17:00 +32°C° 0 mm 5 m/s 757 mmHg 55%
    18:00 +29°C° 0 mm 6 m/s 757 mmHg 62%
    19:00 +28°C° 0 mm 6 m/s 758 mmHg 69%
    20:00 +27°C° 0 mm 6 m/s 758 mmHg 76%
    21:00 +26°C° 0 mm 6 m/s 759 mmHg 79%
    22:00 +26°C° 0 mm 5 m/s 759 mmHg 81%
    23:00 +26°C° 0 mm 5 m/s 759 mmHg 83%

    2 Martie, Luni

    Timp Temperatura Precipitaţii Vânt Presiune Umiditate
    00:00 +25°C° 0 mm 4 m/s 759 mmHg 85%
    01:00 +25°C° 0 mm 4 m/s 759 mmHg 86%
    02:00 +25°C° 0 mm 3 m/s 758 mmHg 87%
    03:00 +24°C° 0 mm 3 m/s 758 mmHg 89%
    04:00 +24°C° 0 mm 2 m/s 759 mmHg 90%
    05:00 +24°C° 0 mm 2 m/s 759 mmHg 91%
    06:00 +25°C° 0 mm 2 m/s 759 mmHg 85%
    07:00 +26°C° 0 mm 1 m/s 760 mmHg 78%
    08:00 +27°C° 0 mm 1 m/s 760 mmHg 72%
    09:00 +30°C° 0 mm 1 m/s 760 mmHg 61%
    10:00 +32°C° 0 mm 2 m/s 760 mmHg 50%
    11:00 +36°C° 0 mm 2 m/s 761 mmHg 39%
    12:00 +36°C° 0 mm 3 m/s 759 mmHg 41%
    13:00 +35°C° 0 mm 4 m/s 758 mmHg 42%
    14:00 +34°C° 0 mm 4 m/s 757 mmHg 44%
    15:00 +34°C° 0 mm 5 m/s 757 mmHg 48%
    16:00 +33°C° 0 mm 6 m/s 757 mmHg 53%
    17:00 +32°C° 0 mm 7 m/s 756 mmHg 57%
    18:00 +30°C° 0 mm 7 m/s 757 mmHg 61%
    19:00 +29°C° 0 mm 7 m/s 757 mmHg 64%
    20:00 +27°C° 0 mm 7 m/s 757 mmHg 68%
    21:00 +27°C° 0 mm 6 m/s 758 mmHg 69%
    22:00 +27°C° 0 mm 6 m/s 759 mmHg 70%
    23:00 +27°C° 0 mm 5 m/s 759 mmHg 71%

    3 Martie, Marţi

    Timp Temperatura Precipitaţii Vânt Presiune Umiditate
    00:00 +26°C° 0 mm 5 m/s 759 mmHg 74%
    01:00 +25°C° 0 mm 4 m/s 759 mmHg 76%
    02:00 +25°C° 0 mm 4 m/s 758 mmHg 78%
    03:00 +23°C° 0 mm 4 m/s 758 mmHg 78%
    04:00 +24°C° 0 mm 3 m/s 758 mmHg 78%
    05:00 +22°C° 0 mm 3 m/s 758 mmHg 78%
    06:00 +24°C° 0 mm 2 m/s 759 mmHg 74%
    07:00 +26°C° 0 mm 2 m/s 759 mmHg 70%
    08:00 +27°C° 0 mm 2 m/s 760 mmHg 66%
    09:00 +29°C° 0 mm 1 m/s 760 mmHg 57%
    10:00 +32°C° 0 mm 1 m/s 760 mmHg 48%
    11:00 +35°C° 0 mm 1 m/s 760 mmHg 39%
    12:00 +36°C° 0 mm 2 m/s 759 mmHg 40%
    13:00 +35°C° 0 mm 3 m/s 758 mmHg 41%
    14:00 +35°C° 0 mm 4 m/s 758 mmHg 41%
    15:00 +34°C° 0 mm 5 m/s 757 mmHg 46%
    16:00 +33°C° 0 mm 5 m/s 757 mmHg 51%
    17:00 +32°C° 0 mm 6 m/s 757 mmHg 55%
    18:00 +30°C° 0 mm 6 m/s 757 mmHg 60%
    19:00 +29°C° 0 mm 6 m/s 757 mmHg 65%
    20:00 +28°C° 0 mm 6 m/s 758 mmHg 70%
    21:00 +27°C° 0 mm 6 m/s 758 mmHg 73%
    22:00 +27°C° 0 mm 5 m/s 759 mmHg 76%
    23:00 +26°C° 0 mm 5 m/s 759 mmHg 80%

    4 Martie, Miercuri

    Timp Temperatura Precipitaţii Vânt Presiune Umiditate
    00:00 +26°C° 0 mm 5 m/s 759 mmHg 81%
    01:00 +25°C° 0 mm 4 m/s 759 mmHg 82%
    02:00 +25°C° 0 mm 4 m/s 759 mmHg 83%
    03:00 +24°C° 0 mm 3 m/s 759 mmHg 84%
    04:00 +24°C° 0 mm 3 m/s 759 mmHg 85%
    05:00 +24°C° 0 mm 2 m/s 759 mmHg 86%
    06:00 +25°C° 0 mm 2 m/s 759 mmHg 80%
    07:00 +26°C° 0 mm 2 m/s 760 mmHg 73%
    08:00 +28°C° 0 mm 1 m/s 760 mmHg 67%
    09:00 +30°C° 0 mm 2 m/s 761 mmHg 57%
    10:00 +34°C° 0 mm 2 m/s 761 mmHg 47%
    11:00 +37°C° 0 mm 2 m/s 761 mmHg 37%
    12:00 +36°C° 0 mm 3 m/s 760 mmHg 39%
    13:00 +36°C° 0 mm 4 m/s 759 mmHg 41%
    14:00 +35°C° 0 mm 4 m/s 759 mmHg 43%
    15:00 +34°C° 0 mm 5 m/s 758 mmHg 48%
    16:00 +33°C° 0 mm 5 m/s 758 mmHg 53%
    17:00 +32°C° 0 mm 5 m/s 757 mmHg 59%
    18:00 +30°C° 0 mm 5 m/s 758 mmHg 65%
    19:00 +29°C° 0 mm 6 m/s 758 mmHg 71%
    20:00 +28°C° 0 mm 6 m/s 759 mmHg 76%
    21:00 +27°C° 0 mm 5 m/s 759 mmHg 80%
    22:00 +27°C° 0 mm 5 m/s 760 mmHg 83%
    23:00 +26°C° 0 mm 4 m/s 760 mmHg 87%
    Arată mai mult